Regional Weather Roundup
Issued by NWS

Home | Current Version | Previous Version | Graphics & Text | Print | Product List | Glossary On
Versions: 1 2 3 4 5 6 7 8 9 10 11 12 13 14 15 16 17 18 19 20 21 22 23 24 25 26 27 28 29 30 31 32 33 34 35 36 37 38 39 40 41 42 43 44 45 46 47 48 49 50
000
ASUS43 KOAX 221402
RWRNE

WEATHER ROUNDUP FOR NEBRASKA
NATIONAL WEATHER SERVICE OMAHA NE
800 AM CST MON JAN 22 2018

NOTES: SATELLITE DATA IS BEING USED TO AUGMENT CLOUD COVER ABOVE
       12000 FEET.
       "FAIR" INDICATES FEW OR NO CLOUDS BELOW 12,000 FEET WITH NO
       SIGNIFICANT WEATHER AND/OR OBSTRUCTIONS TO VISIBILITY.


NEZ001>004-019>022-054>056-221500-
NEBRASKA PANHANDLE

CITY           SKY/WX    TMP DP  RH WIND       PRES   REMARKS
SCOTTSBLUFF    MOCLDY    18   9  68 W12       30.01R WCI   5
ALLIANCE       CLOUDY    22  16  78 NW17      29.94S WCI   8
CHADRON        PTCLDY    17   8  67 VRB3      30.01S
GORDON         FAIR      20  15  78 W10       29.94R WCI   9
KIMBALL        PTCLDY    17   9  69 NW16      29.96S WCI   2
SIDNEY         MOCLDY    20  12  71 NW21      29.95R WCI   4
$$

NEZ057>060-069>072-079>082-221500-
SOUTHWEST NEBRASKA

CITY           SKY/WX    TMP DP  RH WIND       PRES   REMARKS
NORTH PLATTE     N/A    N/A N/A N/A MISG      29.85R
IMPERIAL       CLOUDY    27  22  81 NW20      29.88S WCI  13
LEXINGTON      CLOUDY    30  28  92 N16G22    29.76R WCI  19
MCCOOK         FOG       28  27  96 NW31G45   29.82R VSB 1   WCI  12
OGALLALA       CLOUDY    28  22  77 NW24G32   29.90R WCI  14
$$

NEZ005>010-023>029-035>040-094-221500-
NORTH CENTRAL NEBRASKA

CITY           SKY/WX    TMP DP  RH WIND       PRES   REMARKS
VALENTINE      CLOUDY    26  22  84 N22G28    29.90S WCI  12
AINSWORTH        N/A     26  25  95 NW24      29.84F WCI  11
BROKEN BOW     CLOUDY    28  25  88 N31G46    29.76R FOG     WCI  12
O`NEILL        CLOUDY    24  24  99 N26G38    29.77R WCI   8
ORD            FOG       27  25  92 N28G38    29.72R VSB 1/2 WCI  11
THEDFORD       CLOUDY    27  23  86 NW23G33   29.85R WCI  12
$$

NEZ041-046>049-061>064-073>077-083>087-221500-
SOUTH CENTRAL NEBRASKA

CITY           SKY/WX    TMP DP  RH WIND       PRES   REMARKS
GRAND ISLAND   FOG       29  29 100 N44G53    29.58S VSB 1/4 WCI  11
AURORA         MIX PCPN  31  30  97 N30G40    29.56R WCI  16
HASTINGS       LGT SNOW  30  27  88 N35G48    29.59R FOG     WCI  14
HEBRON         LGT SNOW  33  32  96 N17G26    29.51S WCI  22
HOLDREGE       LGT SNOW  30  30  99 N15G21    29.67R VSB 1   WCI  19
KEARNEY        HVY SNOW  29  28  96 MISG      29.64R VSB 1/4
YORK           SNOW      32  32 100 N18G30    29.52R VSB 1/2 WCI  20
$$

NEZ011>018-030>034-042>045-221500-
NORTHEAST NEBRASKA

CITY           SKY/WX    TMP DP  RH WIND       PRES   REMARKS
NORFOLK        FOG       28  27  96 N39G60    29.53S VSB 1/4 WCI  10
ALBION         SNOW      29  27  92 NW26G37   29.64R VSB 1/2 WCI  14
BLAIR          LGT SNOW  33  33  96 NW13      29.40F VSB 1   WCI  24
COLUMBUS       HVY SNOW  31  30  96 MISG      29.55F VSB 1/4
FREMONT        LGT SNOW  33  33 100 N10G16    29.49R WCI  25
TEKAMAH        LGT SNOW  33  32  96 N18       29.48F FOG     WCI  22
WAYNE          CLOUDY    30  29  96 N32G45    29.54F WCI  14
$$

NEZ050>053-065>068-078-088>093-221500-
SOUTHEAST NEBRASKA

CITY           SKY/WX    TMP DP  RH WIND       PRES   REMARKS
LINCOLN        LGT SNOW  33  32  96 N22G31    29.46S FOG     WCI  21
OMAHA EPPLEY   CLOUDY    34  33  96 N14       29.42F FOG     WCI  25
BEATRICE       CLOUDY    35  34  95 NW18      29.46S WCI  25
FALLS CITY     CLOUDY    36  35  96 W9        29.41S FOG     WCI  29
NEBRASKA CITY  CLOUDY    35  35 100 NW13      29.42R FOG     WCI  26
PLATTSMOUTH    CLOUDY    33  33 100 N3        29.42R FOG
$$

NEZ044-045-051>053-067-221500-
OMAHA AREA

CITY           SKY/WX    TMP DP  RH WIND       PRES   REMARKS
OMAHA EPPLEY   CLOUDY    34  33  96 N14       29.42F FOG     WCI  25
BLAIR          LGT SNOW  33  33  96 NW13      29.40F VSB 1   WCI  24
FREMONT        LGT SNOW  33  33 100 N10G16    29.49R WCI  25
MILLARD        LGT SNOW  35  33  95 NW8       29.44R WCI  28
OFFUTT AFB     LGT SNOW  34  33  96 N13       29.40S WCI  25
PLATTSMOUTH    CLOUDY    33  33 100 N3        29.42R FOG
WAHOO          SNOW      33  32  96 N22       29.46F VSB 1/2 WCI  21
$$




USA.gov is the U.S. government's official web portal to all federal, state and local government web resources and services.